This is the latest recevied weather packets stored in our database for station/object SAVIL. If no packets are shown the sender has not sent any weather packets the latest 10 day(s).
| Time | Temp. | Humidity | Pressure | Rain* | Wind** | Luminosity | Snow |
|---|---|---|---|---|---|---|---|
| 1777109185 | 0.56° C | 93% | 990.9 hPa | 1.02 mm | - | - | - |
| 1777107985 | 0.56° C | 93% | 991 hPa | 1.02 mm | - | - | - |
| 1777106785 | 0.56° C | 94% | 991.1 hPa | 0.76 mm | - | - | - |
| 1777105585 | 0.56° C | 93% | 991.1 hPa | 0.76 mm | - | - | - |
| 1777104385 | 0° C | 92% | 991.3 hPa | 0.76 mm | - | - | - |
| 1777103184 | 0° C | 93% | 991.5 hPa | 1.78 mm | - | - | - |
| 1777101984 | -0.56° C | 94% | 991.7 hPa | 1.78 mm | - | - | - |
| 1777100784 | -0.56° C | 95% | 991.8 hPa | 1.78 mm | - | - | - |
| 1777099584 | -0.56° C | 95% | 992 hPa | 1.02 mm | - | - | - |
| 1777098384 | -0.56° C | 95% | 992.2 hPa | 1.02 mm | - | - | - |
| 1777097184 | -0.56° C | 94% | 992.6 hPa | 1.02 mm | - | - | - |
| 1777095984 | -0.56° C | 93% | 992.8 hPa | 0.76 mm | - | - | - |
| 1777094784 | -0.56° C | 91% | 993 hPa | 0.76 mm | - | - | - |
| 1777093584 | -0.56° C | 92% | 993.3 hPa | 0.76 mm | - | - | - |
| 1777092384 | -0.56° C | 91% | 993.7 hPa | 0.25 mm | - | - | - |
| 1777091184 | -0.56° C | 91% | 994.1 hPa | 0.25 mm | - | - | - |
| 1777089984 | -0.56° C | 89% | 994.4 hPa | 0.25 mm | - | - | - |
| 1777088784 | -0.56° C | 86% | 994.8 hPa | 0 mm | - | - | - |
| 1777087584 | 0° C | 79% | 995.1 hPa | 0 mm | - | - | - |
| 1777086383 | 0.56° C | 69% | 995.2 hPa | 0 mm | - | - | - |
| 1777085183 | 1.11° C | 61% | 995.7 hPa | 0 mm | - | - | - |
| 1777083983 | 0.56° C | 60% | 996 hPa | 0 mm | - | - | - |
| 1777082783 | 0.56° C | 59% | 996.5 hPa | 0 mm | - | - | - |
| 1777081583 | 1.11° C | 55% | 996.7 hPa | 0 mm | - | - | - |
| 1777080383 | 0.56° C | 59% | 997.1 hPa | 0 mm | - | - | - |
* Rain latest hour (hover to see other rain measurements)
** Current wind speed in m/s (hover to see current wind gust speed)